Location: Trebic
(49.2170°N, 15.8830°E)
Time: 12:34:33
(UTC+02:00)

Transit 4A - Pass Details

Date: 29 August 2019
Orbit: 865 x 980 km, 66.8° (Epoch: 14 September)

Event Time Altitude Azimuth Distance (km) Brightness Sun altitude
Rises 02:15:17 0° 323° (NW) 3,640 11.4 -28.8°
Reaches altitude 10° 02:17:52 10° 322° (NW) 2,676 10.6 -28.7°
Enters shadow 02:23:46 75° 274° (W) 961 7.8 -28.3°
Maximum altitude 02:24:06 78° 238° (WSW) 950 - -28.3°
Drops below altitude 10° 02:30:05 10° 153° (SSE) 2,578 - -27.9°
Sets 02:32:33 0° 152° (SSE) 3,499 - -27.7°
